Frenchville, ME

11:40 PM EDT on April 23, 2018 (GMT -0400)
Northern Aroostook Regional

Weather History for KFVE - February, 2011

Change the Weather History Date:

Wednesday, February 23, 2011

  Actual Average Record
Temperature  
Mean Temperature 10 °F 16 °F  
Max Temperature 16 °F 24 °F 47 °F (2017)
Min Temperature 4 °F 7 °F -14 °F (2015)
Degree Days  
Heating Degree Days 55    
Month to date heating degree days 1225  
Since 1 July heating degree days 6318  
Cooling Degree Days 0    
Month to date cooling degree days 0  
Year to date cooling degree days 0  
Moisture  
Dew Point 0 °F    
Average Humidity 64    
Maximum Humidity 76    
Minimum Humidity 49    
Precipitation  
Precipitation 0.00 in 0.04 in 0.36 in (1998)
Month to date precipitation 0.60 0.60  
Year to date precipitation 1.16 2.36  
Sea Level Pressure  
Sea Level Pressure 30.15 in    
Wind  
Wind Speed 16 mph (NNW)    
Max Wind Speed 35 mph    
Max Gust Speed 43 mph    
Visibility 10 miles    
Events      
T = Trace of Precipitation, MM = Missing Value Source: NWS Daily Summary

Daily Weather History Graph

Daily Weather History Graph

Search for Another Location

Airport or City:

Astronomy

Feb. 23, 2011 Rise Set
Actual Time 6:25 AM EST 5:08 PM EST
Civil Twilight 5:54 AM EST 5:40 PM EST
Nautical Twilight 5:18 AM EST 6:15 PM EST
Astronomical Twilight 4:43 AM EST 6:51 PM EST
Moon No Moon Rise 8:37 AM EST (2/23)
Length of Visible Light 11h 46m
Length of Day
10h 43m
Waning Gibbous, 64% of the Moon is Illuminated
Feb 23
Waning Gibbous
Feb 24
Last Quarter
Mar 4
New
Mar 12
First Quarter
Mar 19
Full

Hourly Weather History & Observations

Time (EST) Temp. Windchill Dew Point Humidity Pressure Visibility Wind Dir Wind Speed Gust Speed Precip Events Conditions
12:53 AM 9.0 °F -7.9 °F -0.0 °F 67% 30.06 in 10.0 mi NNW 15.0 mph 23.0 mph N/A   Clear
1:53 AM 8.1 °F -12.6 °F -0.0 °F 70% 30.06 in 10.0 mi NNW 23.0 mph 29.9 mph N/A   Clear
2:53 AM 8.1 °F -13.8 °F -0.0 °F 70% 30.04 in 10.0 mi NNW 26.5 mph 35.7 mph N/A   Clear
3:53 AM 7.0 °F -15.6 °F -0.0 °F 73% 30.05 in 10.0 mi NNW 27.6 mph 40.3 mph N/A   Clear
4:53 AM 7.0 °F -16.0 °F -0.9 °F 70% 30.07 in 10.0 mi NNW 28.8 mph 41.4 mph N/A   Clear
5:53 AM 6.1 °F -17.9 °F -0.9 °F 73% 30.08 in 10.0 mi NNW 31.1 mph 42.6 mph N/A   Clear
6:53 AM 5.0 °F -17.9 °F -0.9 °F 76% 30.09 in 9.0 mi NNW 26.5 mph 42.6 mph N/A   Clear
7:53 AM 6.1 °F -15.2 °F -0.9 °F 73% 30.13 in 9.0 mi NNW 23.0 mph 36.8 mph N/A   Clear
8:53 AM 8.1 °F -13.0 °F -0.9 °F 67% 30.14 in 10.0 mi NNW 24.2 mph 35.7 mph N/A   Clear
9:53 AM 10.0 °F -5.9 °F -0.9 °F 61% 30.17 in 10.0 mi NW 13.8 mph 25.3 mph N/A   Clear
10:53 AM 12.9 °F -2.8 °F -0.0 °F 56% 30.17 in 10.0 mi NNW 15.0 mph 20.7 mph N/A   Clear
11:53 AM 12.9 °F -5.7 °F 1.0 °F 59% 30.16 in 10.0 mi NNW 21.9 mph 29.9 mph N/A   Clear
12:53 PM 14.0 °F -1.4 °F 1.0 °F 56% 30.16 in 10.0 mi NW 15.0 mph 23.0 mph N/A   Partly Cloudy
1:53 PM 15.1 °F -1.1 °F 1.0 °F 54% 30.16 in 10.0 mi NNW 17.3 mph 23.0 mph N/A   Clear
2:53 PM 15.1 °F 1.1 °F 1.0 °F 54% 30.17 in 10.0 mi NNW 12.7 mph 23.0 mph N/A   Clear
3:53 PM 15.8 °F 1.4 °F -0.4 °F 49% 30.12 in 10.0 mi North 13.8 mph - N/A   Clear
4:53 PM 12.9 °F -0.2 °F -0.9 °F 54% 30.20 in 10.0 mi NNW 10.4 mph - N/A   Clear
5:53 PM 12.0 °F -1.3 °F -0.0 °F 59% 30.22 in 10.0 mi NNW 10.4 mph - N/A   Clear
6:53 PM 10.0 °F -2.9 °F -0.0 °F 64% 30.23 in 10.0 mi NNW 9.2 mph - N/A   Clear
7:53 PM 9.0 °F 0.6 °F -0.9 °F 64% 30.22 in 10.0 mi NNW 4.6 mph - N/A   Clear
8:53 PM 8.1 °F -2.0 °F -0.9 °F 67% 30.23 in 10.0 mi WNW 5.8 mph - N/A   Clear
9:53 PM 9.0 °F -3.2 °F -0.9 °F 64% 30.22 in 10.0 mi NW 8.1 mph - N/A   Clear
10:53 PM 6.8 °F -2.0 °F -2.2 °F 67% 30.17 in 10.0 mi NNW 4.6 mph - N/A   Clear
11:53 PM 6.1 °F -0.9 °F -0.9 °F 73% 30.23 in 10.0 mi NW 3.5 mph - N/A   Clear